Location: Oak Glen
(34.0495°N, 116.9470°E)
Time: 21:57:19
(UTC-07:00)

Vanguard 3 - Visible Passes

Search period start: 18 June 2018 00:00
Search period end: 28 June 2018 00:00
Orbit: 508 x 3264 km, 33.3° (Epoch: 18 June)

Date Brightness Start Highest point End Pass type
(mag) Time Alt. Az. Time Alt. Az. Time Alt. Az.
18 Jun 8.0 12:24:55 26° SW 12:28:20 57° SSE 12:38:05 10° E visible
19 Jun 8.3 11:15:10 32° SE 11:15:10 32° SE 11:21:30 10° E visible
19 Jun 8.2 13:20:12 10° WSW 13:26:31 81° S 13:38:13 10° E visible
20 Jun 7.7 12:09:59 33° SW 12:12:30 62° SSE 12:21:24 10° E visible
21 Jun 8.2 11:00:14 32° ESE 11:00:14 32° ESE 11:05:12 10° E visible
21 Jun 7.9 13:04:51 10° W 13:10:40 83° S 13:21:21 10° E visible
22 Jun 7.3 11:55:04 43° SW 11:56:44 67° SSE 12:04:48 10° E visible
23 Jun 8.4 10:45:20 28° ESE 10:45:20 28° ESE 10:48:59 10° E visible
23 Jun 7.7 12:49:54 13° W 12:54:54 85° S 13:04:36 10° E visible
24 Jun 6.9 11:40:11 58° SW 11:41:04 72° SSE 11:48:21 10° E visible
25 Jun 8.7 10:30:29 22° E 10:30:29 22° E 10:32:53 10° E visible
25 Jun 7.4 12:35:04 16° W 12:39:12 86° S 12:47:57 10° E visible
26 Jun 6.7 11:25:23 76° S 11:25:28 77° S 11:32:01 10° E visible
26 Jun 7.9 13:31:51 10° W 13:37:31 77° S 13:47:46 10° ESE visible
27 Jun 9.1 10:15:45 15° E 10:15:45 15° E 10:16:52 10° E visible
27 Jun 7.2 12:20:19 22° W 12:23:33 85° S 12:31:25 10° E visible
